GFSSGP_700_rhum_183.txt.gz
RH
15 15 16 16 24 16 9 7 12 18 41 52 47 37 44 40 42 44 44 32 28 28 18 18 20 22 24 26 35 52 54 50 28 20 23 22 17 17 18 19 23 32 42 51 60 56 46 36 28
13 15 15 25 20 10 9 14 20 26 53 37 33 36 59 56 44 43 43 40 40 35 25 22 21 24 27 29 35 54 57 48 27 22 26 24 18 18 19 15 17 23 31 43 54 61 62 56 44
10 14 22 22 17 13 10 18 22 51 31 40 46 48 72 55 42 38 42 45 43 45 35 27 25 28 37 38 38 55 61 41 24 24 28 25 18 15 15 15 14 14 20 29 40 51 63 69 66
11 19 24 16 12 12 15 18 32 57 31 54 70 57 48 43 44 41 48 40 36 43 43 36 30 38 54 52 43 52 61 38 24 26 30 25 19 16 17 16 15 15 14 14 16 26 34 47 70
13 18 16 15 13 12 20 19 32 42 58 66 69 74 50 49 47 45 30 23 24 29 39 41 39 53 67 64 48 52 61 36 23 28 29 23 18 17 18 17 16 16 16 16 15 14 14 16 33
17 17 14 11 11 16 18 26 44 49 63 68 59 70 43 34 36 44 22 20 20 24 28 43 53 66 71 64 67 62 62 35 24 31 28 23 19 17 17 17 16 17 17 17 16 16 16 16 13
18 16 14 12 12 15 17 32 47 52 61 60 66 70 42 32 27 28 23 22 23 19 24 45 61 66 72 69 71 66 51 28 28 30 26 21 18 16 17 17 16 17 17 18 18 17 16 15 15
21 18 15 14 12 14 22 29 51 64 49 58 42 61 56 38 30 26 24 23 19 20 23 41 55 58 66 65 66 65 38 27 33 32 29 25 20 16 16 17 16 17 17 18 19 19 18 17 15
23 19 15 14 15 16 22 27 27 32 53 57 61 54 44 38 34 24 26 22 20 22 28 48 56 65 61 63 70 49 33 34 35 34 31 27 21 16 16 18 17 17 17 18 19 20 20 19 17
23 18 17 18 17 18 19 20 24 37 41 55 28 35 42 43 28 25 26 24 23 27 33 51 66 59 64 58 50 42 39 38 38 39 34 28 21 16 17 17 17 17 18 18 19 21 21 21 19
26 23 21 20 20 20 17 20 22 26 26 37 54 43 46 38 21 20 25 23 22 24 29 44 56 55 50 48 47 45 43 42 46 48 40 31 20 17 18 17 17 17 18 18 18 18 19 20 21
26 25 27 23 26 24 24 19 23 22 23 35 52 43 22 18 19 18 19 19 21 23 29 39 48 54 55 52 49 51 57 55 52 47 37 25 18 17 17 17 18 18 18 19 19 19 18 19 21
25 25 29 27 28 28 28 28 23 22 24 25 20 19 18 18 18 18 20 22 24 27 34 37 40 46 52 53 51 46 37 31 28 25 21 18 18 18 18 18 19 19 19 20 20 20 19 19 21
29 31 27 29 31 32 32 29 27 28 24 23 21 20 20 21 21 20 20 21 24 25 31 39 40 36 29 24 22 22 23 23 23 22 22 20 20 19 20 20 20 20 21 21 22 21 21 22 26
17 29 24 25 28 29 33 30 29 29 30 30 25 25 24 23 24 23 23 24 27 30 32 33 30 26 25 25 25 27 28 27 25 22 21 21 21 21 22 22 22 22 22 23 25 28 28 29 29
32 30 27 21 28 27 27 21 23 28 33 33 39 52 35 29 26 27 25 24 27 29 30 30 29 28 28 27 28 29 30 30 30 26 24 23 23 23 24 24 24 25 29 32 32 30 29 30 31
27 26 22 23 29 27 29 24 26 26 26 30 36 54 44 34 34 30 29 26 28 29 30 30 30 30 30 31 32 33 34 34 35 35 33 30 28 28 28 28 32 38 40 37 34 34 33 33 36
26 25 22 22 24 29 30 28 26 26 27 33 35 49 60 29 30 34 31 29 29 29 31 31 32 32 32 34 36 38 39 40 40 38 36 34 33 33 36 43 46 44 39 36 35 36 38 39 38
37 33 31 29 28 28 28 28 28 26 25 27 35 42 57 29 30 32 32 31 31 30 34 37 37 37 38 40 42 44 45 46 46 46 47 47 47 46 46 44 41 37 36 37 39 42 39 33 32
37 34 31 30 30 29 28 28 25 25 26 28 33 37 52 71 36 29 32 33 33 34 38 41 45 43 44 47 48 49 50 51 52 54 53 51 48 44 38 37 39 40 41 45 42 33 32 34 35
35 33 33 32 30 28 25 22 20 20 23 26 29 34 41 67 62 37 36 32 35 38 45 50 50 49 50 53 54 54 51 48 46 44 42 40 38 38 40 43 47 50 44 35 34 36 36 36 37
32 29 34 32 31 27 24 23 19 18 21 28 32 36 45 54 81 35 34 38 41 46 49 51 53 53 56 58 55 49 42 40 39 37 35 36 42 45 48 50 51 44 40 37 36 40 41 29 19
30 32 34 33 34 32 24 20 16 16 21 23 34 41 40 49 66 36 37 40 44 45 50 54 58 58 60 61 57 50 47 42 37 37 41 43 49 53 53 50 45 41 38 45 43 20 8 4 4
29 31 32 31 29 30 25 22 19 20 30 34 41 36 34 35 40 38 36 32 33 33 40 48 58 60 63 66 64 54 49 43 44 48 49 51 55 54 52 47 49 52 47 18 7 4 4 4 3
36 35 29 25 22 22 16 23 22 23 35 37 44 41 31 37 33 30 29 26 26 26 32 46 56 62 65 68 61 66 59 52 51 55 55 56 59 59 54 50 58 29 12 4 4 4 3 2 2
30 28 28 33 28 23 19 22 19 28 29 25 24 28 34 32 29 26 26 27 28 32 42 51 61 65 68 72 73 70 61 57 59 59 62 63 65 60 55 60 31 9 5 4 5 4 4 4 4
31 34 31 31 31 30 23 20 20 20 29 42 47 33 34 35 30 28 26 24 20 29 39 54 61 65 68 71 74 73 68 64 66 67 74 74 68 62 65 44 12 5 4 5 5 6 7 8 8
33 31 30 30 38 41 26 22 18 35 35 51 58 52 38 34 33 28 25 25 19 20 26 48 40 39 51 65 73 73 70 68 70 71 76 80 69 70 62 18 5 5 5 6 6 7 8 8 9
30 33 35 33 33 39 41 31 32 46 54 56 66 49 67 41 39 33 36 36 30 29 30 38 32 33 43 62 69 71 70 74 79 74 75 83 72 74 30 7 5 5 6 6 7 7 8 11 14
36 32 29 31 30 30 50 62 44 64 60 55 53 51 48 55 57 55 47 45 41 39 38 43 41 42 51 62 70 73 78 81 85 77 81 79 78 46 14 6 5 7 8 7 8 11 15 15 14

GFSSGP_700_rhum_186.txt.gz
RH
9 13 16 15 31 26 16 11 8 12 21 34 28 32 38 41 37 36 42 36 32 34 30 19 18 20 21 23 27 42 48 44 26 21 25 24 20 19 27 22 18 21 26 26 44 51 53 48 38
8 9 15 23 31 20 12 13 19 48 41 45 32 32 55 49 41 38 42 36 30 29 31 22 18 20 22 24 28 40 54 47 25 22 29 27 23 18 17 17 16 16 16 16 19 32 48 62 59
9 13 21 24 23 18 14 15 19 45 42 32 30 42 59 44 43 40 39 42 43 41 35 28 22 21 23 27 31 35 55 51 27 23 27 28 25 20 19 18 16 16 16 15 14 15 20 32 57
10 19 20 17 16 14 12 15 17 39 40 54 60 50 58 49 40 46 39 41 38 29 32 37 29 25 27 35 46 36 52 57 31 22 28 28 24 21 19 19 18 16 16 16 15 14 14 13 15
25 19 17 16 15 14 16 17 20 30 40 54 63 69 46 44 46 46 43 38 22 20 23 34 36 31 32 48 59 45 47 62 38 24 28 29 26 23 19 18 18 17 16 17 17 16 16 16 15
23 17 16 13 12 12 16 17 15 35 53 66 69 71 56 40 42 46 51 29 19 19 21 29 36 40 42 64 68 54 55 62 40 23 29 29 26 24 21 18 18 19 17 17 17 17 17 16 16
24 18 16 14 12 11 13 19 21 39 44 52 59 74 46 36 31 26 38 23 20 21 20 25 37 52 54 74 70 64 70 65 41 24 31 30 27 23 20 17 18 18 17 16 17 17 18 17 16
22 20 17 15 12 13 18 21 27 45 48 56 60 63 65 43 39 28 25 21 19 17 18 21 28 44 66 75 76 70 74 67 36 28 31 28 27 25 21 17 17 18 17 16 17 18 18 18 18
23 21 18 15 14 15 19 22 25 29 46 59 64 54 49 42 36 32 28 22 19 19 20 20 27 41 57 63 72 76 77 57 34 32 33 32 30 27 23 18 17 18 17 17 17 18 18 18 19
24 22 18 18 17 17 17 18 19 33 29 35 40 48 44 35 39 35 28 23 22 20 20 22 24 40 62 62 62 69 66 45 36 37 37 40 39 33 26 18 18 17 17 17 17 18 18 18 18
23 24 23 22 19 19 18 16 18 20 25 32 43 42 40 33 38 40 22 21 21 21 21 22 32 58 65 71 68 58 50 43 41 41 44 48 45 37 26 18 18 17 17 17 18 18 18 18 18
24 23 23 24 23 23 22 21 18 21 21 25 51 59 47 42 29 21 19 19 20 20 21 24 34 50 56 62 54 50 47 46 48 54 50 44 35 26 20 18 18 18 18 19 19 19 19 19 19
24 24 23 25 26 25 26 25 25 23 21 23 25 32 30 24 19 18 20 19 19 20 21 24 34 49 58 56 57 57 56 55 46 33 25 21 20 19 19 19 19 19 20 20 19 19 20 20 20
29 29 29 24 24 26 28 28 28 27 24 25 27 26 23 20 20 22 37 28 20 20 22 25 34 48 54 56 56 46 32 23 22 23 23 23 22 22 21 20 20 20 21 21 21 22 22 25 26
30 29 28 25 22 25 27 28 27 23 26 27 30 34 50 30 27 30 42 30 24 23 23 26 34 42 47 42 30 24 24 25 26 27 27 26 23 22 21 22 22 22 23 24 24 27 30 30 30
36 31 29 25 22 24 26 25 24 24 26 29 33 35 46 64 72 80 37 26 25 24 23 28 33 38 36 29 26 26 26 28 29 30 30 30 29 28 26 25 26 27 27 27 32 34 36 33 31
33 29 24 22 24 25 27 26 25 27 25 26 27 32 41 62 84 87 39 29 28 27 25 28 33 34 31 30 29 29 31 33 34 34 34 35 35 35 34 32 31 30 32 39 41 40 36 33 33
29 29 27 23 22 27 26 26 27 27 28 27 28 29 36 53 82 96 56 39 37 33 29 29 34 34 33 32 32 33 34 35 36 37 38 38 38 36 35 36 38 42 44 42 38 34 30 30 34
38 36 32 28 26 26 27 27 26 26 25 26 25 29 32 51 72 94 91 56 47 36 32 37 39 41 39 37 35 35 37 39 40 41 42 43 45 46 47 48 48 45 36 33 32 32 35 36 35
35 32 30 28 27 28 28 28 27 25 24 23 24 25 30 40 66 84 81 57 48 40 42 43 47 47 46 43 38 38 41 44 46 47 48 51 52 52 47 39 34 32 29 31 35 40 39 36 35
33 32 30 29 29 28 24 22 20 19 19 20 21 23 29 36 52 67 65 53 44 39 47 55 57 59 55 49 46 47 49 51 50 51 53 50 45 39 33 32 33 34 38 42 42 39 37 36 38
30 28 26 26 28 25 21 23 22 18 16 16 16 25 28 34 52 61 58 52 46 44 49 61 62 64 58 53 51 55 55 54 49 43 39 37 32 31 32 36 43 44 44 42 40 41 42 28 14
26 26 27 29 28 27 25 22 19 18 18 23 23 26 32 38 47 56 51 47 43 41 50 58 60 64 60 58 57 58 57 50 46 43 34 32 33 37 43 50 48 45 45 47 44 32 15 6 3
25 26 26 25 25 31 25 24 22 18 24 30 32 37 38 37 53 54 37 39 36 36 37 53 59 64 62 61 64 64 57 54 47 40 38 40 43 46 49 52 52 49 51 43 25 7 3 3 2
27 28 35 35 33 30 19 17 15 17 25 28 33 28 31 27 42 48 35 32 29 27 25 34 52 54 62 65 68 69 66 63 56 47 44 49 49 53 56 59 57 54 48 19 5 3 3 2 3
31 29 30 36 36 28 24 23 20 19 22 26 34 46 34 25 35 36 30 28 25 24 25 37 49 50 65 69 69 76 72 74 58 53 56 53 57 62 64 63 59 52 16 4 3 4 4 4 5
33 33 29 29 29 31 28 25 22 30 32 39 42 46 63 41 34 32 30 29 28 23 21 34 44 52 62 71 72 75 84 74 64 62 60 61 61 64 71 65 61 23 5 4 5 5 6 6 6
36 33 32 30 43 41 28 24 22 38 47 51 54 59 58 72 52 37 43 33 28 24 19 22 27 38 61 68 71 73 74 73 68 64 65 68 63 69 72 68 43 8 4 5 5 6 6 7 8
31 31 30 31 34 46 55 44 30 53 61 75 69 71 83 85 76 49 41 32 33 36 33 33 30 37 35 36 55 63 67 71 69 70 72 74 65 70 73 66 20 5 4 6 6 6 8 11 12
34 32 30 33 34 30 36 49 40 49 60 63 54 58 69 57 55 56 56 56 53 57 53 50 42 39 40 32 37 50 62 71 72 76 77 78 70 71 74 44 11 5 6 6 7 8 12 12 10

GFSSGP_700_rhum_192.txt.gz
RH
10 11 16 18 17 22 17 12 29 24 38 40 34 26 30 35 50 43 37 34 33 31 36 34 24 19 22 22 23 29 37 32 24 18 22 25 25 25 24 24 23 19 17 17 17 17 21 28 35
11 12 15 20 17 24 18 32 33 48 46 44 42 38 28 25 42 43 39 36 38 41 39 37 30 23 21 22 23 25 35 40 32 19 23 27 28 28 27 26 26 24 20 18 18 17 15 14 17
13 13 15 17 19 14 19 32 19 36 29 31 22 24 26 24 19 42 42 38 37 41 49 48 37 27 21 21 22 24 31 43 40 22 22 28 29 30 29 28 27 26 25 22 18 18 18 15 14
15 16 17 15 15 17 21 18 19 47 44 33 30 26 25 20 22 40 46 42 42 43 42 40 36 28 22 20 22 24 28 35 47 32 21 27 30 30 29 28 28 27 25 24 20 17 19 18 16
15 19 19 19 18 17 17 18 17 38 42 38 45 44 43 37 41 46 50 45 45 35 32 37 38 31 23 22 24 26 34 38 43 47 23 23 31 30 28 29 29 29 28 26 23 19 17 19 18
20 22 20 19 19 18 18 18 22 22 47 49 52 56 50 46 48 45 51 51 45 25 21 26 32 32 28 28 27 30 45 53 42 47 42 22 28 32 31 31 30 29 29 28 25 21 17 18 19
22 29 24 25 20 21 25 23 26 43 53 58 54 54 52 50 44 33 29 43 46 22 20 22 27 32 32 35 36 38 55 66 54 54 55 31 24 31 32 33 32 31 30 29 25 21 17 18 18
25 31 24 22 20 20 20 19 22 35 39 51 56 50 53 49 48 43 37 28 31 23 20 19 21 24 27 31 41 46 60 68 63 63 62 45 25 29 33 34 35 34 33 30 23 19 18 18 18
27 28 24 22 22 24 20 18 17 24 30 32 48 53 58 56 51 49 42 34 30 25 21 19 20 21 22 25 32 43 58 70 72 71 70 53 30 31 34 37 39 38 35 26 20 18 18 18 19
27 26 24 24 25 24 24 20 18 22 29 26 28 30 34 36 34 36 43 45 33 29 26 21 20 20 22 25 27 40 58 67 71 76 74 53 34 35 38 43 45 40 29 20 18 18 19 20 20
28 27 25 26 25 24 25 25 22 20 21 22 24 27 30 40 46 41 38 29 35 33 29 23 21 20 20 21 22 30 51 65 68 77 68 44 39 41 47 50 41 28 20 19 20 20 20 20 20
27 26 25 25 24 24 26 26 24 22 22 22 22 22 22 24 37 34 34 38 41 36 26 22 21 21 19 20 24 39 64 68 72 68 53 46 46 51 50 32 24 21 22 22 21 20 20 21 21
26 25 24 24 24 23 26 25 24 21 22 24 23 22 23 24 23 23 23 24 25 25 21 20 20 19 20 22 29 48 63 68 65 57 52 53 55 36 22 23 23 23 22 22 21 22 23 23 24
28 24 24 23 22 23 24 24 25 21 26 26 26 24 24 24 25 26 23 23 21 19 19 19 19 21 22 24 32 47 60 63 60 59 57 37 24 24 25 26 26 26 26 25 24 25 25 26 27
32 31 26 21 22 22 24 22 23 24 25 24 25 26 27 27 26 28 25 23 21 22 21 22 25 24 25 26 31 37 51 59 63 48 27 25 27 28 29 29 30 31 31 31 31 30 30 29 30
37 34 31 27 32 26 28 27 22 26 27 25 24 26 27 27 29 27 26 26 26 28 26 31 32 32 34 32 29 38 53 61 45 29 27 28 29 32 33 33 34 35 35 35 35 34 32 34 37
34 37 41 37 30 27 27 26 24 26 26 26 28 28 28 28 28 28 28 27 27 28 30 35 38 41 45 44 45 55 64 51 35 30 30 32 33 34 34 36 38 38 37 36 36 37 41 44 44
42 48 46 40 37 30 30 28 27 27 27 29 30 28 28 28 29 30 30 29 30 30 36 41 46 48 47 51 60 62 62 46 37 34 34 34 38 40 39 38 38 40 41 43 46 48 46 36 31
52 49 39 38 36 30 32 30 28 27 27 27 28 28 27 26 28 31 40 45 39 38 40 42 49 53 50 56 65 67 60 46 39 38 38 39 41 42 42 43 44 46 49 51 46 36 32 31 33
49 45 41 39 37 32 28 26 26 25 24 23 24 26 24 24 26 27 32 40 34 36 49 43 54 47 43 53 62 61 58 49 44 41 40 42 44 47 46 49 50 52 49 41 33 28 32 36 38
50 42 40 32 32 31 29 25 21 13 6 6 8 11 16 18 19 22 26 31 36 37 44 48 64 46 40 42 48 57 62 56 50 46 47 50 50 50 53 54 49 42 33 28 25 28 36 37 36
45 47 37 30 28 26 27 29 19 10 10 19 22 21 19 20 19 19 29 29 30 44 46 52 58 44 32 34 37 55 70 63 55 50 53 56 55 58 48 42 36 31 27 28 30 34 36 37 37
32 33 31 30 29 26 26 23 14 14 21 27 24 26 26 24 22 21 18 35 48 51 56 60 54 37 30 33 37 60 75 69 59 56 60 59 55 46 42 37 34 32 29 30 32 35 38 41 38
28 29 27 26 25 37 27 24 27 27 28 28 26 24 23 27 25 25 32 54 58 63 63 57 50 40 33 36 46 59 66 67 62 62 67 58 51 43 40 38 36 34 36 38 45 48 47 35 17
23 25 36 41 46 45 31 32 31 32 29 28 29 30 33 29 31 47 56 62 66 65 65 64 56 36 31 33 34 45 59 66 66 71 66 59 56 47 47 39 36 38 37 50 53 48 33 11 3
34 30 35 55 61 47 35 34 32 37 39 39 42 47 52 54 60 66 65 67 69 73 79 69 38 30 30 38 41 49 59 67 69 75 72 74 72 67 47 46 46 48 52 60 53 38 14 3 3
34 35 35 35 37 44 36 33 38 46 41 46 54 54 54 55 60 73 86 87 90 87 80 56 44 36 39 38 48 46 59 68 71 78 79 80 79 67 55 57 62 57 55 60 50 22 5 4 4
30 34 36 37 50 50 36 33 35 50 49 50 52 60 68 62 63 69 70 79 79 83 86 74 76 45 33 38 42 44 56 66 77 80 82 91 79 72 66 70 66 60 62 63 41 9 4 4 5
27 25 34 39 38 55 56 45 51 57 55 47 45 42 64 74 66 59 46 59 68 98 79 67 61 54 62 58 55 57 58 54 79 79 78 77 78 74 71 75 72 67 66 62 28 5 5 5 7
36 32 37 42 41 44 71 82 48 58 55 59 70 52 52 41 35 45 45 45 42 42 41 40 50 87 81 65 64 62 60 59 77 83 79 81 83 81 81 80 81 73 71 55 16 5 6 7 10

GFSSGP_700_rhum_195.txt.gz
RH
8 8 12 13 17 22 15 15 35 45 31 29 36 31 28 29 32 42 40 40 24 24 24 21 20 22 23 24 25 28 32 33 28 18 20 23 24 24 25 25 24 22 19 18 18 17 16 19 31
8 9 12 16 16 21 10 23 30 32 56 44 36 35 33 33 43 38 39 37 28 29 31 27 23 22 22 24 25 26 32 38 34 23 20 24 26 27 27 27 26 25 25 22 18 18 19 16 14
10 11 13 17 18 16 18 44 17 17 38 58 49 31 26 25 35 42 38 40 43 39 39 45 36 26 23 24 25 25 29 35 37 34 20 24 28 29 28 28 27 27 26 25 23 19 18 19 17
11 13 14 13 14 14 18 18 19 19 45 54 51 35 28 30 30 36 44 38 48 46 48 53 52 42 28 23 24 24 25 28 36 42 27 22 28 30 30 29 29 28 27 26 26 24 18 18 20
17 15 14 17 17 18 20 20 17 28 47 60 53 45 50 47 43 38 48 44 42 42 43 46 50 41 29 24 24 24 25 27 33 41 43 22 25 31 30 30 30 29 28 28 28 26 21 18 18
25 22 19 19 18 22 26 25 27 28 42 53 54 58 55 50 48 47 48 51 49 46 31 35 42 37 29 25 24 24 26 28 39 42 44 40 22 27 31 31 31 31 30 30 29 27 23 18 18
28 26 19 20 19 21 23 24 24 39 52 57 60 57 53 49 46 38 32 44 54 38 22 26 34 36 31 28 25 27 28 32 48 56 44 51 37 23 28 32 33 33 32 32 31 28 22 18 18
30 29 24 21 20 22 24 20 23 24 33 44 49 45 38 54 50 47 47 42 31 42 23 22 25 30 32 31 31 33 34 37 56 68 58 60 57 33 24 30 33 36 36 35 33 26 20 18 19
30 29 26 23 23 24 25 25 19 19 25 25 24 23 39 55 55 48 41 42 42 33 26 21 20 24 28 30 33 37 41 45 58 73 69 68 65 50 28 30 35 39 41 38 32 22 19 20 20
28 26 24 25 26 26 25 24 25 23 20 28 30 27 29 33 34 32 38 38 33 40 34 28 22 21 24 27 32 35 41 48 58 75 70 68 69 59 33 34 39 44 45 37 24 20 21 21 21
28 27 26 25 25 26 25 24 24 25 25 22 20 24 29 30 31 37 42 40 33 32 33 32 27 22 22 24 23 25 29 37 52 65 66 70 74 51 37 40 47 50 35 23 21 21 21 21 21
28 26 27 26 26 25 26 26 25 25 25 24 23 22 24 23 22 24 23 30 30 32 36 35 29 24 22 22 21 21 24 38 46 60 68 77 62 44 44 50 55 33 23 22 22 22 22 23 24
26 25 26 26 26 25 24 24 26 25 25 24 24 23 22 23 23 24 24 24 23 23 29 32 26 22 21 20 19 22 30 47 61 68 73 63 53 50 58 55 29 24 24 23 23 24 25 25 25
28 24 23 22 22 24 24 23 24 24 25 25 25 24 25 24 26 26 26 26 25 24 22 20 20 19 19 20 22 28 37 50 66 68 64 58 57 61 39 25 26 27 26 26 27 28 27 28 28
31 29 26 24 33 33 31 22 21 22 22 24 26 25 24 24 26 26 27 29 27 26 26 26 22 22 24 26 27 30 42 57 64 64 62 64 54 28 26 28 29 30 32 33 33 32 32 32 32
36 35 31 26 35 30 27 27 24 24 24 26 27 26 25 25 27 28 30 29 28 28 27 26 31 33 32 31 35 37 48 63 67 66 68 48 28 28 29 31 32 33 34 36 37 36 35 34 35
38 38 43 33 38 37 36 30 28 28 29 27 27 27 26 28 29 29 28 28 29 28 28 28 34 36 44 47 40 47 54 54 56 60 50 31 29 31 33 35 36 38 39 39 38 37 39 43 46
42 46 47 49 37 39 38 36 30 28 28 28 27 27 27 28 28 30 32 31 30 30 30 28 33 43 40 44 48 48 54 53 54 55 41 33 32 34 37 40 42 41 42 44 46 49 50 48 41
42 50 56 50 44 42 40 38 36 32 28 28 28 28 28 28 28 28 27 26 30 36 37 30 37 44 49 49 51 52 57 64 62 53 42 36 36 37 40 42 44 46 50 52 52 48 40 35 32
51 55 52 47 44 42 40 42 39 34 31 27 23 22 25 25 27 27 24 23 21 26 33 37 42 50 50 52 50 50 67 72 64 56 45 40 39 41 43 47 48 53 54 52 45 35 34 35 33
51 53 51 47 41 44 43 38 31 20 19 15 7 6 8 6 5 7 13 19 19 22 27 38 44 58 63 64 50 50 49 63 68 59 51 46 44 46 51 52 55 53 48 39 33 30 37 42 39
48 46 49 44 36 31 32 31 25 16 10 6 9 15 21 20 21 19 13 14 18 22 25 38 58 67 68 73 50 63 76 81 70 65 58 51 50 54 55 65 57 42 37 34 33 35 39 43 44
33 34 32 29 31 30 29 28 23 21 15 16 24 27 26 28 29 27 26 27 26 28 37 59 95 98 96 99 63 75 90 85 79 72 63 56 56 59 58 51 45 36 33 30 29 32 40 46 50
26 25 26 29 30 36 28 29 27 24 26 25 24 27 26 24 23 22 22 28 36 37 77 97 100 100 100 97 82 82 79 88 83 74 63 62 65 62 54 47 40 40 35 32 34 36 45 50 47
24 24 34 37 41 42 29 32 28 28 31 30 29 28 26 25 24 28 28 26 56 80 100 100 100 99 98 91 51 59 95 94 86 73 66 67 67 58 54 49 49 38 38 37 38 48 53 47 31
27 28 33 48 56 49 36 35 32 36 37 37 37 39 40 42 46 52 62 65 74 93 100 95 97 95 83 66 43 46 81 90 84 75 68 73 66 64 65 57 43 45 46 47 47 57 54 36 12
33 36 37 38 38 47 38 35 38 44 52 50 48 49 54 57 62 65 76 100 100 99 100 98 96 90 70 81 52 41 58 60 76 77 78 78 72 75 70 50 52 54 58 57 53 60 48 17 4
30 32 33 39 55 59 43 39 37 52 59 56 59 54 54 50 62 60 80 78 78 64 55 54 44 51 72 83 83 61 57 66 64 80 82 83 80 83 72 71 66 67 70 64 63 64 32 6 5
32 32 35 38 39 57 49 45 50 59 60 58 71 76 70 73 59 52 41 36 41 44 35 46 38 45 49 49 64 83 78 76 78 80 82 87 87 90 83 80 74 73 71 72 68 61 19 5 6
36 36 33 40 38 46 62 62 45 48 61 64 62 72 66 91 65 62 54 49 44 46 54 50 42 45 49 56 57 48 53 55 73 80 85 87 91 93 88 86 82 84 80 78 72 51 11 6 7

GFSSGP_700_rhum_198.txt.gz
RH
9 9 10 11 13 13 11 16 22 23 40 35 44 40 44 38 32 32 36 37 41 33 21 17 17 21 24 26 29 33 36 35 33 25 18 20 23 24 25 25 25 24 23 20 18 18 19 17 16
9 10 11 13 13 14 9 16 25 18 32 53 54 49 43 37 33 33 32 34 38 32 21 18 19 22 25 26 29 34 38 39 37 32 20 22 25 26 26 26 26 26 25 24 21 18 18 19 17
11 11 12 15 14 14 16 24 20 17 24 45 52 48 38 29 31 38 44 42 44 27 22 20 21 23 25 27 29 32 37 40 40 40 28 22 26 28 28 27 27 27 26 26 25 22 19 18 19
13 14 15 14 11 11 21 25 21 17 19 34 48 55 41 44 43 38 37 35 48 34 34 31 27 25 25 26 28 31 34 37 40 44 42 24 24 28 30 29 29 28 28 27 27 26 22 18 18
19 17 19 15 14 20 26 24 26 25 30 34 42 49 52 50 42 36 44 44 43 51 50 53 57 47 31 26 27 29 30 31 34 42 46 45 25 27 30 30 30 30 29 29 29 28 25 21 18
25 25 23 19 16 22 23 25 25 29 32 39 48 55 54 48 42 40 45 46 45 46 43 43 49 58 55 38 28 29 28 29 30 37 42 48 44 24 27 31 31 31 32 31 31 29 27 22 18
26 30 31 24 18 21 22 21 24 23 34 46 54 61 54 47 46 44 39 34 44 49 48 35 29 40 43 39 28 28 28 29 30 34 42 46 48 45 24 27 32 32 34 34 34 33 28 22 18
27 32 31 26 21 20 25 25 22 19 27 28 48 42 32 45 53 51 47 47 44 33 44 24 24 30 35 32 29 28 28 29 31 35 48 60 51 54 45 25 28 32 35 37 38 36 29 20 19
29 28 28 27 26 25 25 25 24 25 22 22 26 27 25 24 37 48 49 36 38 40 40 28 22 21 24 30 31 30 30 32 34 38 54 70 64 63 62 38 28 31 36 40 42 37 24 20 21
29 29 27 27 27 26 26 26 25 25 25 25 24 22 28 26 30 34 32 36 40 39 40 38 30 24 22 26 32 32 34 37 40 44 57 77 66 60 67 51 33 34 39 46 44 28 21 22 21
27 26 27 27 28 27 26 25 25 26 25 25 25 25 22 24 29 27 30 39 40 31 30 33 32 28 23 27 31 33 36 40 48 54 60 72 67 69 73 50 36 38 45 51 32 22 22 22 22
25 27 28 26 26 26 26 26 26 26 25 24 24 24 25 24 23 23 24 24 24 24 25 32 32 35 29 25 26 29 31 36 44 52 58 61 68 77 74 47 40 44 56 38 23 23 23 23 24
26 24 24 24 25 26 26 24 25 24 25 25 26 24 25 25 24 23 25 25 25 25 24 24 32 36 31 27 25 25 26 28 36 40 53 61 69 79 56 44 46 59 36 24 24 24 25 26 28
30 27 24 23 24 26 25 22 22 21 22 23 24 24 26 25 26 26 26 26 27 29 27 27 24 21 22 25 30 29 26 26 32 40 50 63 72 64 53 52 63 38 25 26 28 29 30 30 30
34 31 26 27 29 31 31 27 28 25 22 22 22 23 27 26 25 26 29 27 29 29 28 28 27 27 27 24 25 26 28 31 36 46 53 61 64 60 63 63 32 26 27 28 29 31 33 35 35
36 34 30 26 29 35 33 32 28 28 28 24 24 26 27 27 26 31 30 30 30 28 28 29 28 30 32 34 38 36 35 42 46 53 59 60 62 67 50 27 28 29 30 31 33 35 36 37 36
34 36 37 31 36 39 40 38 31 34 30 29 26 26 27 28 27 27 29 29 29 29 30 31 30 36 38 35 32 41 42 44 48 52 58 64 62 51 29 29 30 33 35 37 40 39 40 42 45
36 44 48 43 32 41 39 38 34 36 38 31 30 29 28 28 28 29 30 33 34 34 31 30 33 33 44 43 38 38 46 53 67 72 71 69 57 36 31 32 35 37 42 42 45 48 50 51 51
39 48 47 32 34 51 41 40 35 31 34 34 32 31 29 27 28 28 29 28 28 29 28 27 30 37 40 52 55 45 41 57 72 80 75 68 50 38 35 36 40 43 44 48 53 53 51 48 41
41 50 40 45 41 44 44 45 45 36 31 30 30 29 21 20 12 9 12 12 14 20 24 23 25 42 49 53 60 59 48 50 66 84 80 68 48 40 38 40 42 45 49 55 53 48 43 36 31
46 53 51 51 53 54 47 40 31 20 14 11 10 9 9 9 9 11 15 19 25 25 21 24 30 44 48 56 62 66 59 51 63 80 85 63 48 44 45 46 48 52 58 56 44 38 34 30 30
47 46 45 41 38 34 34 34 28 19 14 11 14 11 12 14 21 25 28 27 27 27 30 31 45 64 68 68 72 76 78 87 97 93 74 58 51 49 50 52 54 57 56 46 38 33 31 32 36
37 36 31 28 30 32 32 29 24 22 21 21 19 12 16 16 16 18 23 26 24 22 29 43 59 96 96 98 99 100 99 100 99 93 68 60 56 55 60 59 58 54 50 44 33 33 35 35 34
31 27 26 25 25 37 28 30 24 24 24 24 26 28 28 27 25 21 19 21 22 24 39 62 99 99 100 100 99 99 99 99 94 98 90 72 62 63 63 56 54 49 43 39 33 33 33 38 44
23 24 33 35 42 37 28 32 27 26 28 31 32 34 35 36 33 29 24 21 20 21 51 86 100 100 100 98 98 94 98 85 90 96 92 80 71 67 57 51 45 47 47 39 36 36 40 48 54
28 28 30 45 50 43 35 37 30 33 34 36 44 50 54 56 56 54 54 52 45 58 77 100 100 98 97 97 92 91 93 88 89 96 94 83 76 67 56 53 54 58 43 43 48 47 46 50 51
36 35 37 38 41 50 38 35 37 37 45 53 54 59 56 57 56 54 54 46 46 74 96 98 98 94 69 63 67 81 78 85 96 97 91 86 78 68 62 64 63 47 50 55 53 46 51 51 52
32 33 34 37 53 51 40 38 37 42 54 56 58 55 53 52 64 65 55 51 49 47 44 43 46 46 51 59 62 88 94 86 90 98 98 88 82 76 70 76 66 52 52 58 61 55 56 53 47
35 35 35 36 36 52 45 37 44 49 52 57 62 59 55 58 63 67 60 54 52 64 56 48 49 51 44 53 63 62 76 78 90 88 90 90 88 85 83 89 71 67 70 71 72 65 64 56 39
40 39 38 41 42 42 58 48 45 46 46 56 65 66 53 56 52 51 48 59 62 64 56 65 68 69 60 54 67 71 72 81 83 98 100 95 92 84 94 96 88 87 82 79 79 81 65 62 32

GFSSGP_700_rhum_201.txt.gz
RH
11 10 9 8 9 10 11 27 23 23 22 35 54 50 46 43 39 34 40 30 30 39 34 20 16 18 19 22 26 31 36 39 38 32 22 18 21 23 25 25 25 24 24 22 20 18 19 19 18
12 10 10 10 9 10 9 17 29 27 19 31 50 50 46 39 30 30 29 28 34 42 40 22 17 19 21 23 26 35 38 41 41 37 27 19 22 24 26 26 26 25 26 25 25 22 18 18 19
13 11 11 12 11 14 17 21 25 19 17 28 42 50 44 41 39 32 27 34 30 45 39 24 18 19 20 24 29 32 39 43 45 43 37 24 22 26 27 28 27 27 27 26 26 26 23 19 18
16 16 14 13 12 17 25 26 22 17 16 20 37 45 44 47 35 31 24 35 37 46 39 26 19 20 22 24 27 29 37 44 47 48 47 37 24 27 28 28 29 28 28 28 28 27 26 22 19
21 21 20 14 13 22 23 27 32 32 31 29 37 45 50 51 46 35 32 36 45 53 31 25 22 22 23 24 24 27 32 37 45 49 52 52 36 28 29 30 29 29 29 29 29 29 28 24 20
29 28 25 20 16 22 23 26 25 28 26 34 43 50 58 52 40 40 40 42 46 54 58 57 52 46 39 29 28 28 31 32 38 42 49 53 56 42 27 29 30 30 30 31 32 32 32 28 22
27 29 28 26 21 22 25 23 21 19 22 32 44 54 57 39 27 43 46 43 41 49 52 52 51 57 66 61 40 30 30 32 35 38 41 42 50 54 48 27 29 30 31 32 34 36 35 31 21
27 30 30 27 25 20 25 25 25 23 22 26 29 49 27 22 25 33 50 53 45 41 36 50 36 31 52 68 65 43 30 31 34 35 35 40 47 53 54 49 28 28 30 33 36 38 39 31 20
21 26 27 27 26 22 25 25 25 25 25 25 22 22 22 26 25 32 35 44 34 38 37 40 31 24 29 41 45 40 31 30 31 34 38 39 50 62 61 62 42 28 29 33 38 42 42 26 21
23 23 26 27 28 25 24 24 24 24 25 24 24 25 25 23 22 22 26 33 36 38 38 37 40 33 27 25 29 34 32 32 32 35 38 42 52 70 68 70 55 30 30 34 40 47 38 22 22
25 22 22 24 27 28 26 26 26 26 25 25 26 25 24 21 23 26 26 25 33 29 30 31 31 32 31 26 26 30 33 33 35 38 41 45 52 63 62 64 61 38 33 36 44 50 28 22 22
25 24 27 25 26 26 27 27 26 26 25 26 25 26 25 22 23 24 23 24 23 24 24 23 26 30 33 33 27 26 32 35 39 42 45 50 57 61 63 68 66 47 36 40 52 40 23 23 24
29 26 24 24 24 26 25 24 23 23 24 23 25 25 24 23 24 25 25 26 26 26 28 26 24 26 33 38 34 30 31 36 40 41 46 55 58 55 58 64 68 47 42 49 55 28 24 25 26
32 29 28 28 28 30 30 28 28 28 27 25 22 25 26 25 26 25 26 26 28 28 30 28 27 26 25 23 30 40 41 39 32 32 39 45 55 62 68 70 59 48 50 59 33 25 25 27 30
34 29 28 29 30 33 32 31 30 30 28 28 24 24 24 26 27 27 28 28 30 29 30 29 29 29 28 30 29 29 31 34 34 40 50 54 60 79 76 64 55 55 59 30 26 27 28 29 32
31 29 27 25 28 32 32 33 31 32 31 29 27 25 26 27 27 27 27 27 30 30 31 30 31 31 30 32 33 34 37 38 37 40 49 67 77 77 70 57 63 61 29 27 28 30 31 34 37
26 34 31 21 26 32 37 37 32 36 36 34 32 31 30 29 29 28 28 28 31 30 30 31 32 33 34 36 36 37 41 48 48 56 78 75 86 74 66 72 67 35 28 29 31 34 37 39 40
24 27 28 24 25 29 26 28 31 36 36 34 33 34 33 31 30 29 28 29 29 30 30 32 34 37 39 38 44 42 41 43 53 55 59 73 81 72 78 69 34 31 32 34 36 40 41 44 49
24 24 23 17 21 36 21 30 30 27 29 28 28 32 34 33 32 31 29 27 24 27 29 29 31 32 43 43 44 51 50 51 47 46 64 80 78 80 81 41 34 35 36 40 44 43 48 52 50
23 27 21 26 33 44 40 40 30 20 21 20 16 13 12 11 11 11 11 11 14 16 14 14 19 29 42 58 59 59 65 63 57 53 65 95 85 87 58 38 38 38 43 45 48 53 54 50 46
34 38 38 48 46 45 43 34 25 20 17 16 14 14 14 15 16 19 24 27 27 26 26 28 27 23 61 84 84 76 65 68 64 64 81 94 94 82 51 42 40 46 47 52 55 54 47 42 40
42 38 42 37 35 38 35 29 28 27 16 15 17 17 21 19 18 20 21 20 20 20 21 21 26 36 57 96 99 99 96 94 98 100 100 98 96 61 49 46 49 49 56 57 57 45 41 38 33
39 38 34 31 28 27 32 32 23 23 22 21 19 16 17 16 18 21 24 24 23 21 20 21 27 34 51 97 98 99 100 100 100 99 99 99 97 74 54 53 53 59 58 56 42 42 37 33 32
32 36 32 27 25 31 25 28 23 24 25 25 26 28 28 30 30 29 27 26 24 23 23 27 30 45 60 97 99 100 98 99 88 98 95 96 98 93 91 80 69 59 52 44 40 38 36 33 34
21 25 28 26 34 27 28 32 26 26 28 31 32 32 34 35 36 36 37 35 34 33 30 30 33 52 73 99 100 100 97 97 82 97 100 100 98 98 97 97 82 52 46 43 42 38 41 43 41
28 28 28 30 30 27 35 35 32 32 32 33 35 40 44 44 48 52 52 48 48 45 43 49 55 85 100 98 93 92 77 91 94 87 99 97 96 94 93 90 73 52 47 47 46 50 54 48 49
33 34 35 38 40 44 33 33 35 33 36 43 50 50 51 56 56 54 54 50 46 47 44 44 53 57 50 56 58 70 71 76 80 79 81 74 79 86 87 86 61 55 54 54 53 55 60 58 56
31 33 35 37 41 39 30 32 32 34 50 56 57 56 57 56 52 50 44 54 61 55 54 54 60 76 58 46 48 71 68 51 66 76 85 92 89 95 96 82 62 62 64 60 62 64 59 52 58
36 35 36 36 36 40 41 38 43 47 48 48 50 51 47 42 42 45 45 48 45 43 55 64 72 76 79 76 59 61 76 84 74 72 97 99 99 98 92 82 69 76 92 66 67 68 67 57 62
42 37 39 46 43 52 61 53 47 45 44 45 42 42 44 43 41 36 38 44 46 58 65 68 73 90 96 96 95 75 78 87 81 70 72 96 98 97 97 96 95 91 97 88 76 74 77 69 63

GFSSGP_700_rhum_207.txt.gz
RH
9 8 7 8 24 16 12 16 20 22 26 37 49 56 52 45 57 60 27 20 24 27 27 41 37 16 16 20 22 24 28 31 33 32 33 27 23 22 24 25 25 24 24 24 23 21 19 18 19
9 8 7 26 21 10 10 15 19 21 26 40 40 42 48 62 28 20 17 17 19 25 26 42 43 23 16 18 22 24 28 30 32 36 35 28 22 22 24 24 25 26 25 25 25 25 23 20 18
9 8 28 19 13 10 12 16 18 21 25 32 40 43 51 61 36 24 18 17 17 28 33 38 50 33 17 19 21 25 30 36 36 39 40 35 24 23 25 23 25 26 26 26 26 26 26 25 21
13 14 21 20 12 15 16 18 25 25 28 18 31 50 42 44 38 22 18 18 18 31 37 46 49 41 26 18 21 25 44 57 39 43 42 43 37 26 26 26 24 25 26 27 27 28 28 28 26
20 29 22 15 14 17 18 22 28 32 33 28 41 55 60 45 32 20 20 19 29 39 43 42 47 43 24 20 21 24 37 42 38 38 40 45 47 44 30 28 28 26 25 27 27 29 30 31 30
31 26 20 14 14 18 20 23 28 37 48 50 43 53 67 48 23 19 22 22 33 37 45 44 38 34 23 22 24 27 29 33 31 37 38 49 52 52 52 35 30 28 25 26 27 29 31 33 32
33 26 20 17 16 18 21 23 24 30 36 48 58 42 62 29 20 20 20 22 33 43 36 41 50 44 28 24 25 26 27 30 35 47 51 43 52 49 52 58 46 30 27 24 26 28 30 33 34
28 23 19 18 17 17 21 22 23 21 37 42 40 43 76 44 19 22 22 21 30 40 32 37 39 54 56 54 48 42 35 31 31 43 52 43 42 40 46 53 63 52 30 26 26 27 30 34 37
27 23 16 16 18 18 22 22 23 25 25 38 43 37 40 22 23 23 23 25 28 38 35 38 36 41 50 54 54 64 68 63 40 33 36 38 38 38 40 45 60 64 55 33 26 26 29 34 40
27 21 18 20 20 21 22 23 22 23 21 28 38 46 29 23 21 22 20 23 28 36 37 39 40 41 45 45 36 40 40 58 78 53 39 40 37 41 39 49 50 59 70 46 54 29 28 34 42
27 24 22 23 23 24 24 24 24 24 22 22 23 24 39 29 23 22 21 24 31 35 38 40 39 35 41 44 43 37 35 34 48 70 59 44 42 40 42 46 54 55 67 74 40 26 27 34 44
30 27 28 27 28 29 29 28 27 24 23 24 24 27 31 34 22 23 20 22 23 26 40 35 27 25 27 32 38 37 37 36 34 45 51 47 42 43 47 51 55 58 66 69 65 31 28 34 45
34 30 30 31 31 31 32 31 31 28 28 26 21 20 21 38 35 24 25 23 24 26 28 25 26 26 24 24 29 34 38 38 35 37 44 44 42 40 46 50 55 59 67 74 60 29 30 35 48
32 37 33 32 32 32 32 28 29 26 27 30 23 23 34 40 51 60 25 26 26 25 26 26 27 28 27 26 26 25 24 24 28 35 37 40 43 45 52 57 61 63 71 77 72 43 31 36 50
37 36 32 28 28 31 33 28 26 28 36 32 33 42 36 33 33 29 43 26 27 27 26 28 28 30 30 29 29 28 27 26 25 26 30 40 45 51 49 44 51 82 78 85 67 43 33 39 54
37 32 28 26 30 31 31 23 22 30 32 30 29 31 38 43 48 58 53 29 27 27 30 28 30 32 31 32 32 31 30 30 29 28 27 30 36 42 44 44 60 87 76 87 79 40 35 46 55
30 26 22 21 29 30 32 26 26 29 33 31 33 31 32 35 41 55 29 28 28 28 28 31 28 32 34 37 37 37 36 34 34 33 31 32 37 42 44 48 70 92 99 91 59 38 40 50 44
26 24 22 21 26 33 31 30 29 28 28 29 32 30 34 34 40 36 31 30 29 29 28 29 30 36 38 42 47 50 52 46 43 42 40 39 41 47 49 59 94 82 98 77 48 42 49 52 35
30 28 24 22 23 28 30 28 27 26 27 28 29 29 31 38 47 29 27 26 23 21 20 18 19 19 22 27 28 43 54 59 63 56 55 50 45 52 61 67 84 94 92 76 56 51 58 43 32
32 29 26 25 26 32 30 26 25 25 24 25 27 30 38 42 47 14 13 13 19 25 26 26 26 26 25 25 26 27 26 27 66 81 73 66 63 63 66 73 76 99 91 73 61 62 48 37 33
30 28 30 31 29 28 25 22 20 24 25 26 29 36 47 33 24 18 21 21 21 20 20 20 19 18 19 21 21 20 23 32 64 68 76 89 81 82 84 78 86 100 98 83 70 61 40 37 35
32 28 32 29 28 27 25 23 22 21 22 28 45 55 37 18 20 22 23 21 20 21 22 21 21 24 24 24 26 24 22 23 23 83 87 88 93 96 95 96 97 93 100 89 76 55 43 41 41
31 30 32 30 30 29 27 25 21 20 20 22 48 51 19 18 21 22 22 22 24 23 25 28 28 25 23 25 26 32 34 30 28 35 97 99 92 99 99 96 100 99 98 84 63 53 51 48 48
31 32 31 30 28 26 24 21 18 18 19 24 53 58 20 22 22 24 25 30 33 31 34 36 35 34 32 26 22 23 31 30 45 48 91 100 100 100 100 99 100 100 99 96 89 83 69 58 59
33 34 31 30 27 26 22 22 21 20 26 29 46 61 28 30 28 35 38 40 38 39 38 38 36 35 34 37 38 32 28 32 39 52 98 99 99 100 100 100 100 97 99 99 98 93 96 96 85
33 32 32 38 34 26 25 24 22 26 28 29 30 46 34 53 57 61 64 63 58 53 47 44 39 36 35 39 48 54 49 44 47 59 91 83 81 97 98 99 98 98 98 99 98 96 96 96 95
35 34 34 33 32 32 29 26 24 32 49 54 58 47 62 65 66 67 62 61 64 66 75 82 36 36 38 46 59 67 46 41 38 46 80 97 100 100 100 99 98 99 98 98 98 96 96 95 72
36 36 35 36 42 40 27 25 25 39 44 60 73 75 72 70 62 58 56 58 64 71 73 87 49 44 48 64 68 79 76 64 57 57 92 99 98 98 98 96 97 97 97 97 97 96 92 94 96
38 37 36 35 35 38 40 33 41 45 50 54 60 65 59 53 52 56 58 64 68 69 76 36 68 77 66 58 67 85 98 98 92 77 88 100 97 99 97 97 97 97 97 97 96 94 96 93 85
40 37 36 38 37 37 38 48 42 48 52 56 56 52 53 48 53 54 58 66 73 55 38 29 44 88 83 55 69 73 64 76 97 96 98 92 98 98 98 96 97 97 98 96 94 89 92 92 90